Regional Weather Roundup
Issued by NWS Charleston, SC

Current Version | Previous Version | Graphics & Text | Print | Product List | Glossary On
Versions: 1 2 3 4 5 6 7 8 9 10 11 12 13 14 15 16 17 18 19 20 21 22 23 24 25 26 27 28 29 30 31 32 33 34 35 36 37 38 39 40 41 42 43 44 45 46 47 48 49 50
000 ASUS42 KCHS 010626 RWRCHS REGIONAL WEATHER ROUNDUP NATIONAL WEATHER SERVICE CHARLESTON SC 100 AM EST SUN MAR 01 2015 NOTE: "FAIR" INDICATES FEW OR NO CLOUDS BELOW 12,000 FEET WITH NO SIGNIFICANT WEATHER AND/OR OBSTRUCTIONS TO VISIBILITY. NOT ALL STATIONS ARE QUALITY CONTROLLED BY THE NATIONAL WEATHER SERVICE. USE DATA WITH CAUTION...ESPECIALLY DEWPOINT OBSERVATIONS. SCZ027-030-031-034>040-042>050-010700- ...SOUTHEAST SOUTH CAROLINA... CITY SKY/WX TMP DP RH WIND PRES REMARKS N CHARLESTON CLOUDY 44 32 62 N10 30.56S 6HR MIN TEMP: 44; 6HR MAX TEMP: 47; 6HR PCP: TRACE; WATERFRONT PRK N/A 45 N/A N/A NE14 N/A MOUNT PLEASANT CLOUDY 45 32 61 N5 30.54F PINOPOLIS N/A 45 32 61 NE10 30.48F MONCKS CORNER CLOUDY 43 32 65 NE6 30.57F SUMMERVILLE DRIZZLE 43 34 70 NE6 30.57S BEAUFORT MCAS CLOUDY 43 38 82 N12 30.53F 6HR MIN TEMP: 43; 6HR MAX TEMP: 47; 6HR PCP: 0.05; BEAUFORT ARPT RAIN 43 39 87 NE13 30.51F HILTON HEAD IS CLOUDY 45 39 81 N12G18 30.52F WALTERBORO DRIZZLE 43 37 81 NE8 30.56F ALLENDALE LGT RAIN 41 37 87 NE6 30.54F ...SOUTHERN MIDLANDS AND PEE DEE... CITY SKY/WX TMP DP RH WIND PRES REMARKS GEORGETOWN NOT AVBL KINGSTREE NOT AVBL ORANGEBURG LGT RAIN 40 30 67 NE8 30.57F WCI 34 6HR MIN TEMP: 41; 6HR MAX TEMP: 48; 6HR PCP: TRACE; BARNWELL CLOUDY 43 34 70 NE9 30.56F AIKEN LGT RAIN 39 36 87 NE8 30.60F WCI 34 MANNING LGT RAIN 41 34 75 N5 30.59S COLUMBIA LGT RAIN 40 33 76 NE7 30.60F WCI 35 6HR MIN TEMP: 40; 6HR MAX TEMP: 49; 6HR PCP: 0.04; SUMTER LGT RAIN 37 32 81 NE7 30.60S WCI 32 6HR MIN TEMP: 37; 6HR MAX TEMP: 46; 6HR PCP: 0.03; FLORENCE LGT RAIN 37 29 72 NE8 30.61F WCI 31 6HR MIN TEMP: 37; 6HR MAX TEMP: 44; 6HR PCP: 0.03; MYRTLE BEACH CLOUDY 41 28 60 N9 30.60F N MYRTLE BEACH CLOUDY 41 25 53 N9 30.58F 6HR MIN TEMP: 41; 6HR MAX TEMP: 45; 6HR PCP: TRACE; $$ GAZ063-065-086>088-099>101-113>116-118-119-134>141-150-010700- ...SOUTHEAST GEORGIA... CITY SKY/WX TMP DP RH WIND PRES REMARKS SAVANNAH ARPT CLOUDY 43 38 82 NE9 30.51F 6HR MIN TEMP: 43; 6HR MAX TEMP: 45; 6HR PCP: TRACE; HUNTER AAF CLOUDY 43 40 87 NE7 30.48S 6HR MIN TEMP: 43; 6HR MAX TEMP: 46; 6HR PCP: 0.02; FORT STEWART CLOUDY 45 40 82 N7 30.49S 6HR MIN TEMP: 43; 6HR MAX TEMP: 45; 6HR PCP: TRACE; STATESBORO CLOUDY 41 41 100 NE7 30.52F SYLVANIA DRIZZLE 41 41 97 NE7 30.54S CLAXTON CLOUDY 43 41 93 NE7 30.52F ...CSRA...CENTRAL AND FAR SOUTHEAST GEORGIA... CITY SKY/WX TMP DP RH WIND PRES REMARKS THOMSON CLOUDY 41 40 93 NE6 30.61F AUGUSTA-BUSH LGT RAIN 41 36 82 NE10 30.57F 6HR MIN TEMP: 41; 6HR MAX TEMP: 50; 6HR PCP: 0.05; AUGUSTA-DANIEL LGT RAIN 42 36 79 NE8 30.57F SWAINSBORO RAIN 45 41 87 NE7 30.53F VIDALIA CLOUDY 43 43 100 NE5 30.52F EASTMAN DRIZZLE 42 42 100 NE6 30.54F HAZLEHURST DRIZZLE 44 44 100 NE6 30.49F ALMA CLOUDY 43 41 93 NE3 30.49F FOG 6HR MIN TEMP: 43; 6HR MAX TEMP: 44; 6HR PCP: TRACE; WAYCROSS CLOUDY 47 45 90 E8 30.47F JESUP CLOUDY 46 43 87 NE7 30.49S BAXLEY DRIZZLE 45 43 93 NE6 30.50S BRUNSWICK CLOUDY 46 45 93 NE9G20 30.48R SAINT SIMONS LGT RAIN 48 46 93 N18G28 30.45F FOG 6HR MIN TEMP: 46; 6HR MAX TEMP: 49; 6HR PCP: TRACE; $$ SCZ027-028-034-036>038-045-046-048>050-GAZ119-141-010700- ...LAKE AND SUPPLEMENTAL COASTAL OBSERVATIONS... STATION/POSITION TIME TEMP WIND PRES WAVE SWELL AIR SEA DIR/SP/G HT/PER HT/PER/DIR (UTC) (F) (DEG/KT/KT) (MB) (FT/S) (FT/S/D) UPR LAKE MARION NOT AVBL WINYAH BAY 0545 42 40/ 10 1034.0F LAKE MURRAY 0600 39 50/ 3/ 5 1035.6F ACE BASIN NERRS NOT AVBL FORT PULASKI 0500 45 49 30/ 15/ 19 1033.8F SAPELO ISLAND 0600 47 30/ 15 1032.0S $$ ANZ835-935-AMZ111-154-330-350-352-354-370-450-454-472-010700- ...C-MAN AND BUOY OBSERVATIONS... STATION/POSITION TIME TEMP WIND PRES WAVE SWELL AIR SEA DIR/SP/G HT/PER HT/PER/DIR (UTC) (F) (DEG/KT/KT) (MB) (FT/S) (FT/S/D) BUOY 41004 0550 58 67 30/ 23/ 29 1031.7F 10/ 9 5/ 9 BUOY 41008 0550 52 52 30/ 21/ 25 1030.3F 8/ 8 3/ 80/ 9 FOLLY BEACH CMAN 0600 44 20/ 17/ 19 1034.2F CAPERS NEARSHORE NOT AVBL FRIPP NEARSHORE 0500 46 50/ 19/ 23 1032.2R STATION/POSITION TIME TEMP WIND PRES WAVE SWELL AIR SEA DIR/SP/G HT/PER HT/PER/DIR (UTC) (F) (DEG/KT/KT) (MB) (FT/S) (FT/S/D) 5E ST. MARYS GA 0521 52 N/A 7/ 7 2/ 70/11 FRYING PAN BUOY 0550 52 61 40/ 21/ 27 1034.4F 8/ 8 3/ 40/12 BUOY 41025 NOT AVBL CAPE LOOKOUT NC 0600 38 30/ 18/ 20 1036.2F BUOY 41002 0550 66 70 70/ 21/ 25 1033.3F 11/ 9 2/340/14 BUOY 41010 0520 71 73 80/ 25/ 29 1028.1F ST AUGUSTINE FL 0600 56 350/ 6/ 7 1029.6F $$

USA.gov is the U.S. government's official web portal to all federal, state and local government web resources and services.